Погода в Октябрьском

Россия / Республика Крым     45°17′32″N   34°07′54″E
темп.,
°C
ветер,
м/с
пор.,
м/с
влажн.,
%
обл.,
%
осадки,
мм/ч
давл.,
гПа
погр.,
м
11 апреля, вс
вс1100:00+5ссз266691 0.0 1024109
03:00+5с276799 0.0 1024149
06:00+5с397118 0.0 1023223
09:00+10св7115869 0.0 1023840
12:00+10св61157100 0.0 10231347
15:00+11св51052100 0.1 10221227
18:00+9вюв2466100 0.0 1021142
21:00+8в2270100 0.4 102149
12 апреля, пн
пн1200:00+8всв2277100 0.5 102139
03:00+7св2597100 2.8 1020225
06:00+7ссв2599100 1.8 1020312
09:00+8св2395100 1.9 1020274
12:00+10в2281100 0.1 1020595
15:00+13зюз1168100 0.1 10191027
18:00+11з3482100 0.1 1020212
21:00+9зюз3489100 0.1 1021149
13 апреля, вт
вт1300:00+8зюз339340 0.0 102169
03:00+6зюз249684 0.0 102285
06:00+7юз3595100 0.0 1022172
09:00+9зюз2285100 0.0 1022315
12:00+11вюв1173100 0.0 1021494
15:00+14зюз2261100 0.1 10201208
18:00+10юз4680100 0.2 1020320
21:00+9зюз2387100 0.4 1021194
14 апреля, ср
ср1400:00+8з128891 0.0 102084
03:00+8сз0189100 0.0 101920
06:00+8св119062 0.0 101829
09:00+11в347513 0.0 1018574
12:00+15вюв235156 0.0 10161507
15:00+16ю3345100 0.0 10151872
18:00+12з346793 0.0 1015358
21:00+10вюв2270100 0.0 101526
15 апреля, чт
чт1500:00+8юв237345 0.0 101432
03:00+8ююв22790 0.0 101322
06:00+8вюв1175100 0.0 101212
09:00+9сз1184100 0.7 101253
12:00+13зюз7973100 0.4 1011995
15:00+11юз91173100 0.6 10131191
18:00+10зюз7107887 0.1 1013919
21:00+8юз6980100 0.1 1014973